Lansing, MI

8:46 PM EDT on August 26, 2016 (GMT -0400)
Capital City

Weather History for KLAN - December, 2013

Change the Weather History Date:

Saturday, December 21, 2013

  Actual Average Record
Temperature  
Mean Temperature 31 °F 27 °F  
Max Temperature 32 °F 33 °F 61 °F (1967)
Min Temperature 30 °F 21 °F -15 °F (1864)
Degree Days  
Heating Degree Days 34 38  
Month to date heating degree days 840 741  
Since 1 July heating degree days 2286 2155  
Cooling Degree Days 0 0  
Month to date cooling degree days 0 0  
Year to date cooling degree days 661 625  
Moisture  
Dew Point 30 °F    
Average Humidity 96    
Maximum Humidity 100    
Minimum Humidity 92    
Precipitation  
Precipitation 0.54 in 0.06 in 1.44 in (1905)
Month to date precipitation 1.42 1.30  
Year to date precipitation 41.00 31.20  
Snow  
Snow 0.00 in 0.50 in 8.00 in (1870)
Month to date snowfall 10.0 8.4  
Since 1 July snowfall 10.7 12.2  
Snow Depth 0.00 in    
Sea Level Pressure  
Sea Level Pressure 29.81 in    
Wind  
Wind Speed 8 mph (NE)    
Max Wind Speed 21 mph    
Max Gust Speed 38 mph    
Visibility 2 miles    
Events Fog , Rain    
T = Trace of Precipitation, MM = Missing Value Source: NWS Daily Summary

Daily Weather History Graph

Daily Weather History Graph

Search for Another Location

Airport or City:

Trip Planner

Search our weather history database for the weather conditions in past years. The results will help you decide how hot, cold, wet, or windy it might be!

Date:

Astronomy

Dec. 21, 2013 Rise Set
Actual Time 8:05 AM EST 5:07 PM EST
Civil Twilight 7:33 AM EST 5:39 PM EST
Nautical Twilight 6:57 AM EST 6:15 PM EST
Astronomical Twilight 6:23 AM EST 6:49 PM EST
Moon 9:28 PM EST (12/21) 10:26 AM EST (12/21)
Length of Visible Light 10h 06m
Length of Day
9h 01m
Waning Gibbous, 84% of the Moon is Illuminated
Dec 21
Waning Gibbous
Dec 25
Last Quarter
Jan 1
New
Jan 7
First Quarter
Jan 15
Full

Hourly Weather History & Observations

Time (EST) Temp. Windchill Dew Point Humidity Pressure Visibility Wind Dir Wind Speed Gust Speed Precip Events Conditions
12:00 AM 32.0 °F 28.7 °F 30.2 °F 93% 29.74 in 1.2 mi NNE 3.5 mph - N/A   Overcast
12:36 AM 32.0 °F 28.7 °F 30.2 °F 93% 29.74 in 1.5 mi NNE 3.5 mph - N/A   Overcast
12:53 AM 32.0 °F 28.7 °F 30.9 °F 96% 29.76 in 2.0 mi NNE 3.5 mph - N/A   Overcast
1:27 AM 32.0 °F 28.7 °F 30.2 °F 93% 29.73 in 1.8 mi ENE 3.5 mph - N/A   Overcast
1:53 AM 32.0 °F 28.7 °F 30.9 °F 96% 29.78 in 1.8 mi North 3.5 mph - N/A   Overcast
2:00 AM 32.0 °F 28.7 °F 30.2 °F 93% 29.75 in 2.0 mi North 3.5 mph - N/A   Overcast
2:26 AM 32.0 °F 27.5 °F 30.2 °F 93% 29.75 in 1.8 mi North 4.6 mph - N/A   Overcast
2:49 AM 32.0 °F 28.7 °F 30.2 °F 93% 29.75 in 1.2 mi NNE 3.5 mph - N/A   Overcast
2:53 AM 32.0 °F 27.5 °F 30.9 °F 96% 29.77 in 1.0 mi NNE 4.6 mph - N/A   Overcast
3:44 AM 32.0 °F 26.4 °F 30.2 °F 93% 29.76 in 0.8 mi NNE 5.8 mph - N/A   Overcast
3:53 AM 32.0 °F 28.7 °F 30.9 °F 96% 29.80 in 1.0 mi North 3.5 mph - N/A   Overcast
4:53 AM 32.0 °F 28.7 °F 30.9 °F 96% 29.81 in 1.5 mi NNE 3.5 mph - N/A   Overcast
5:11 AM 32.0 °F 28.7 °F 30.2 °F 93% 29.79 in 1.2 mi NE 3.5 mph - N/A   Overcast
5:53 AM 32.0 °F 28.7 °F 30.9 °F 96% 29.81 in 0.8 mi NE 3.5 mph - N/A   Mist
6:21 AM 32.0 °F 28.7 °F 30.2 °F 93% 29.79 in 1.5 mi North 3.5 mph - N/A   Overcast
6:41 AM 32.0 °F 26.4 °F 30.2 °F 93% 29.78 in 1.0 mi NE 5.8 mph - N/A   Overcast
6:50 AM 32.0 °F 27.5 °F 30.2 °F 93% 29.80 in 0.8 mi NNE 4.6 mph - N/A   Overcast
6:53 AM 32.0 °F 27.5 °F 30.9 °F 96% 29.83 in 0.8 mi NE 4.6 mph - N/A   Mist
7:22 AM 32.0 °F 28.7 °F 30.2 °F 93% 29.79 in 1.0 mi ENE 3.5 mph - N/A   Mist
7:43 AM 32.0 °F 27.5 °F 30.2 °F 93% 29.82 in 1.5 mi North 4.6 mph - N/A   Overcast
7:53 AM 32.0 °F 28.7 °F 30.9 °F 96% 29.85 in 1.8 mi North 3.5 mph - N/A   Overcast
8:05 AM 32.0 °F 27.5 °F 30.2 °F 93% 29.83 in 2.0 mi NNE 4.6 mph - N/A   Overcast
8:17 AM 32.0 °F - 30.2 °F 93% 29.84 in 1.5 mi Calm Calm - N/A   Overcast
8:27 AM 32.0 °F 28.7 °F 30.2 °F 93% 29.84 in 1.0 mi NNE 3.5 mph - N/A   Overcast
8:34 AM 32.0 °F 27.5 °F 30.2 °F 93% 29.84 in 0.2 mi NNE 4.6 mph - N/A Fog Fog
8:53 AM 32.0 °F 26.4 °F 30.0 °F 92% 29.87 in 0.2 mi NNE 5.8 mph - N/A Fog Fog
9:21 AM 30.2 °F 22.6 °F 30.2 °F 100% 29.83 in 0.2 mi NNE 8.1 mph - N/A Fog Light Freezing Fog
9:33 AM 30.2 °F 23.4 °F 30.2 °F 100% 29.85 in 0.2 mi NNE 6.9 mph - N/A Fog Light Freezing Fog
9:40 AM 30.2 °F 23.4 °F 30.2 °F 100% 29.85 in 0.2 mi NNE 6.9 mph - N/A Fog Light Freezing Fog
9:53 AM 30.9 °F 23.5 °F 30.0 °F 96% 29.86 in 0.2 mi NE 8.1 mph - N/A Fog Light Freezing Fog
10:37 AM 30.2 °F 21.3 °F 30.2 °F 100% 29.83 in 0.5 mi ENE 10.4 mph - N/A Fog Light Freezing Fog
10:53 AM 30.9 °F 22.8 °F 28.9 °F 92% 29.86 in 0.8 mi NE 9.2 mph - N/A   Overcast
11:12 AM 30.2 °F 21.3 °F 28.4 °F 93% 29.83 in 1.5 mi ENE 10.4 mph - N/A   Overcast
11:27 AM 30.2 °F 22.6 °F 30.2 °F 100% 29.83 in 0.8 mi ENE 8.1 mph - N/A   Overcast
11:45 AM 30.2 °F 22.6 °F 28.4 °F 93% 29.82 in 1.5 mi NE 8.1 mph - N/A   Overcast
11:53 AM 30.9 °F 22.8 °F 30.0 °F 96% 29.86 in 2.5 mi ENE 9.2 mph - N/A   Overcast
12:03 PM 30.2 °F 23.4 °F 28.4 °F 93% 29.83 in 5.0 mi ENE 6.9 mph - N/A   Overcast
12:53 PM 30.9 °F 24.3 °F 30.0 °F 96% 29.87 in 3.0 mi North 6.9 mph - N/A   Overcast
1:36 PM 30.2 °F 23.4 °F 28.4 °F 93% 29.83 in 2.5 mi NE 6.9 mph - N/A   Overcast
1:53 PM 30.9 °F 23.5 °F 28.9 °F 92% 29.87 in 2.5 mi NE 8.1 mph - N/A   Overcast
2:18 PM 30.2 °F 22.6 °F 30.2 °F 100% 29.83 in 2.0 mi ENE 8.1 mph - 0.01 in Rain Light Freezing Rain
2:53 PM 30.9 °F 23.5 °F 28.9 °F 92% 29.86 in 2.5 mi NNE 8.1 mph - 0.02 in Rain Light Freezing Rain
3:06 PM 30.2 °F 21.9 °F 28.4 °F 93% 29.83 in 2.5 mi NE 9.2 mph - 0.01 in Rain Light Freezing Rain
3:53 PM 30.0 °F 19.1 °F 28.0 °F 92% 29.85 in 2.5 mi NNE 15.0 mph - 0.03 in Rain Light Freezing Rain
4:14 PM 30.2 °F 21.3 °F 28.4 °F 93% 29.83 in 2.5 mi ENE 10.4 mph - 0.00 in Rain Light Freezing Rain
4:53 PM 30.0 °F 21.1 °F 28.0 °F 92% 29.85 in 2.5 mi NE 10.4 mph - 0.01 in Rain Light Freezing Rain
5:19 PM 30.2 °F 19.8 °F 28.4 °F 93% 29.82 in 2.5 mi ENE 13.8 mph - 0.01 in Rain Light Freezing Rain
5:53 PM 30.9 °F 22.2 °F 28.9 °F 92% 29.85 in 2.5 mi ENE 10.4 mph - 0.04 in Rain Light Freezing Rain
6:00 PM 30.2 °F 20.2 °F 28.4 °F 93% 29.81 in 5.0 mi NE 12.7 mph - 0.00 in Rain Light Freezing Rain
6:53 PM 30.9 °F 21.7 °F 28.9 °F 92% 29.86 in 5.0 mi NE 11.5 mph - 0.04 in Rain Light Freezing Rain
7:53 PM 30.9 °F 21.7 °F 28.9 °F 92% 29.87 in 5.0 mi NNE 11.5 mph 18.4 mph 0.08 in Rain Light Freezing Rain
8:53 PM 30.9 °F 20.7 °F 28.0 °F 89% 29.85 in 5.0 mi NE 13.8 mph 21.9 mph 0.07 in Rain Light Freezing Rain
9:35 PM 30.2 °F 19.3 °F 28.4 °F 93% 29.78 in 6.0 mi NE 15.0 mph 24.2 mph 0.04 in Rain Light Freezing Rain
9:46 PM 30.2 °F 20.2 °F 28.4 °F 93% 29.76 in 6.0 mi NE 12.7 mph 20.7 mph 0.05 in Rain Light Freezing Rain
9:53 PM 30.0 °F 19.1 °F 28.0 °F 92% 29.79 in 7.0 mi NE 15.0 mph - 0.06 in Rain Light Freezing Rain
10:53 PM 30.9 °F 19.8 °F 28.9 °F 92% 29.73 in 5.0 mi NE 16.1 mph 26.5 mph 0.10 in Rain Light Freezing Rain
11:53 PM 30.9 °F - 28.9 °F 92% 29.70 in 7.0 mi North - - 0.09 in Rain Light Freezing Rain